Salina, KS

2:14 AM CDT on May 01, 2017 (GMT -0500)
Salina Municipal

Weather History for KSLN - October, 2011

Change the Weather History Date:

Sunday, October 30, 2011

  Actual Average Record
Temperature  
Mean Temperature 49 °F 52 °F  
Max Temperature 63 °F 64 °F 88 °F (1950)
Min Temperature 34 °F 41 °F 15 °F (1991)
Degree Days  
Heating Degree Days 16 13  
Month to date heating degree days 228 255  
Since 1 July heating degree days 287 307  
Cooling Degree Days 0 0  
Month to date cooling degree days 45 32  
Year to date cooling degree days 2003 1644  
Growing Degree Days 1 (Base 50)    
Moisture  
Dew Point 29 °F    
Average Humidity 44    
Maximum Humidity 67    
Minimum Humidity 20    
Precipitation  
Precipitation 0.00 in 0.05 in 4.36 in (1979)
Month to date precipitation 0.82 2.22  
Year to date precipitation 16.96 29.26  
Sea Level Pressure  
Sea Level Pressure 30.08 in    
Wind  
Wind Speed 11 mph (WNW)    
Max Wind Speed 26 mph    
Max Gust Speed 33 mph    
Visibility 10 miles    
Events      
T = Trace of Precipitation, MM = Missing Value Source: NWS Daily Summary

Daily Weather History Graph

Daily Weather History Graph

Search for Another Location

Airport or City:

Trip Planner

Search our weather history database for the weather conditions in past years. The results will help you decide how hot, cold, wet, or windy it might be!

Date:

Astronomy

Oct. 30, 2011 Rise Set
Actual Time 7:55 AM CDT 6:32 PM CDT
Civil Twilight 7:27 AM CDT 7:00 PM CDT
Nautical Twilight 6:56 AM CDT 7:31 PM CDT
Astronomical Twilight 6:25 AM CDT 8:02 PM CDT
Moon 12:13 PM CDT (10/30) 10:04 PM CDT (10/30)
Length of Visible Light 11h 32m
Length of Day
10h 37m
Waxing Crescent, 20% of the Moon is Illuminated
Oct 30
Waxing Crescent
Nov 2
First Quarter
Nov 10
Full
Nov 18
Last Quarter
Nov 25
New

Hourly Weather History & Observations

Time (CDT) Temp. Windchill Dew Point Humidity Pressure Visibility Wind Dir Wind Speed Gust Speed Precip Events Conditions
12:53 AM 54.0 °F - 35.1 °F 49% 29.87 in 10.0 mi SSW 18.4 mph - N/A   Clear
1:53 AM 52.0 °F - 35.1 °F 53% 29.89 in 10.0 mi SSW 15.0 mph - 0.00 in   Clear
2:53 AM 50.0 °F - 35.1 °F 57% 29.92 in 10.0 mi SW 10.4 mph - N/A   Clear
3:53 AM 46.9 °F - 36.0 °F 66% 29.94 in 10.0 mi West 6.9 mph - N/A   Clear
4:53 AM 50.0 °F - 33.1 °F 52% 29.97 in 10.0 mi North 13.8 mph - N/A   Clear
5:53 AM 48.0 °F - 32.0 °F 54% 30.02 in 10.0 mi NNW 15.0 mph - N/A   Clear
6:53 AM 42.8 °F 38.6 °F 30.2 °F 61% 30.06 in 10.0 mi NW 6.9 mph - N/A   Clear
7:53 AM 42.8 °F 36.6 °F 32.0 °F 66% 30.09 in 10.0 mi WNW 11.5 mph - N/A   Clear
8:53 AM 44.1 °F 40.1 °F 33.1 °F 65% 30.13 in 10.0 mi NW 6.9 mph - N/A   Clear
9:53 AM 51.1 °F - 34.0 °F 52% 30.14 in 10.0 mi NNW 9.2 mph - N/A   Clear
10:53 AM 54.0 °F - 33.1 °F 45% 30.15 in 10.0 mi NNW 11.5 mph - 0.00 in   Clear
11:53 AM 55.0 °F - 28.0 °F 35% 30.17 in 10.0 mi NW 15.0 mph - N/A   Clear
12:53 PM 59.0 °F - 28.0 °F 31% 30.16 in 10.0 mi WNW 16.1 mph 23.0 mph N/A   Clear
1:53 PM 61.0 °F - 25.0 °F 25% 30.13 in 10.0 mi NNW 15.0 mph 25.3 mph N/A   Clear
2:53 PM 63.0 °F - 21.9 °F 21% 30.12 in 10.0 mi NW 18.4 mph 27.6 mph N/A   Clear
3:53 PM 63.0 °F - 23.0 °F 22% 30.11 in 10.0 mi WNW 15.0 mph 31.1 mph N/A   Clear
4:53 PM 62.1 °F - 24.1 °F 23% 30.10 in 10.0 mi NW 16.1 mph 23.0 mph N/A   Clear
5:53 PM 60.8 °F - 24.8 °F 25% 30.11 in 10.0 mi NW 10.4 mph - N/A   Clear
6:53 PM 55.0 °F - 26.1 °F 33% 30.12 in 10.0 mi WNW 3.5 mph - N/A   Clear
7:53 PM 50.0 °F - 26.1 °F 39% 30.14 in 10.0 mi Calm Calm - N/A   Clear
8:53 PM 45.0 °F 41.2 °F 27.0 °F 49% 30.14 in 10.0 mi SSW 6.9 mph - N/A   Clear
9:53 PM 42.1 °F 37.1 °F 26.1 °F 53% 30.14 in 10.0 mi SSW 8.1 mph - N/A   Clear
10:53 PM 39.9 °F 34.5 °F 26.1 °F 58% 30.14 in 10.0 mi SW 8.1 mph - N/A   Clear
11:53 PM 35.1 °F 28.6 °F 25.0 °F 67% 30.14 in 10.0 mi SSW 8.1 mph - N/A   Clear